235P/LINEAR (2002)

Japanese version
Home page
Updated on March 27, 2010

---------------------------------------------------------------------

* Profile

Designation 235P/2002 FA9
Discovery Date March 16, 2002
Magnitude 18.5 mag
Discoverer Lincoln Laboratory Near-Earth Asteroid Research project

* Orbital Elements

Epoch 2002 Mar. 27.0 TT = JDT 2452360.5
T 2002 Mar. 19.11709 TT                                 MPC
q   2.7361199            (2000.0)            P               Q
n   0.12347802     Peri.  333.51637     -0.99720644     -0.03806503
a   3.9940143      Node   204.55866     +0.05377213     -0.96303442
e   0.3149449      Incl.    8.89533     -0.05184472     -0.26667538
P   7.98

* Magnitudes Graph

        m1 = 12.0 + 5 log d + 10.0 log r

---------------------------------------------------------------------

The orbital elements are published on M.P.E.C. 2010-F50.
The magnitudes graphs are made with Comet for Windows.

---------------------------------------------------------------------

Copyright(C) Seiichi Yoshida (comet@aerith.net). All rights reserved.